Wind_Speed
13 16 17 20 22 24 24 24 25 25 26 27 28 31 36 40 44 48 50 54 55 56 55 53 51 50 52 54 56 57 59 61 63 65 67 70 73 74 77 79 80 83 85 86
16 17 19 22 23 24 25 26 26 25 26 28 31 35 39 44 47 51 55 57 58 57 55 53 52 53 55 58 61 63 65 66 69 71 73 76 78 80 82 84 86 88 91 93
19 21 23 25 26 26 28 28 27 28 28 33 36 39 42 46 50 54 58 60 59 58 55 54 55 56 61 64 65 67 68 70 73 76 79 81 84 87 89 92 94 95 96 98
21 22 25 26 28 30 28 29 29 30 32 36 40 43 46 49 54 57 59 59 57 57 57 59 63 65 67 70 72 74 75 77 80 83 85 87 90 93 95 95 95 94 91 91
22 24 27 29 30 31 32 32 33 35 38 41 43 49 51 56 58 62 62 62 62 63 65 68 70 73 76 78 81 83 83 84 86 87 88 89 89 89 88 87 87 87 87 87
24 26 29 31 31 32 33 35 36 40 42 45 48 51 54 59 62 63 65 65 67 68 69 71 74 77 80 82 84 86 86 86 85 84 83 83 85 85 84 82 81 79 78 77
26 28 32 35 34 34 38 37 40 42 45 47 50 53 57 62 65 65 67 69 70 71 75 81 83 82 82 83 80 78 78 78 79 80 80 78 77 75 73 70 69 67 64 62
30 32 36 38 39 40 40 43 44 45 48 53 53 59 62 64 66 69 70 72 74 77 82 82 83 82 79 78 77 75 72 70 69 68 68 66 64 61 61 59 59 59 57 56
33 37 40 42 44 47 47 46 47 49 51 54 59 61 66 68 69 72 75 78 82 83 83 81 79 77 73 70 66 63 61 61 60 57 56 56 55 52 51 53 52 53 52 52
38 40 45 45 46 45 49 49 50 52 53 58 61 65 69 71 74 77 80 84 85 83 80 78 74 69 66 64 60 56 55 53 52 52 49 46 44 45 45 47 48 50 51 51
43 47 46 48 48 50 49 49 52 54 58 62 65 69 73 76 78 81 85 85 82 79 76 72 67 63 62 56 51 49 47 48 46 42 41 41 40 42 44 46 46 44 41 36
46 49 49 51 52 52 52 54 56 59 61 65 68 71 76 79 82 84 85 82 79 75 72 66 61 58 53 48 44 43 42 39 38 39 38 40 40 40 37 34 31 29 30 30
48 49 54 51 52 55 56 58 61 64 65 68 70 74 79 80 82 82 80 77 76 73 68 64 60 53 46 40 37 35 33 34 35 38 39 37 33 30 25 24 24 24 21 20
49 51 53 55 59 60 61 63 65 65 67 69 73 76 76 77 79 77 76 76 72 66 64 61 52 43 36 32 29 27 28 34 37 37 33 27 23 20 19 16 16 17 17 17
51 54 56 58 60 60 60 61 63 65 68 70 71 71 73 76 74 74 74 71 65 63 56 46 37 28 25 24 23 28 33 35 32 28 23 20 17 16 16 18 19 19 20 20
48 49 52 55 58 60 59 60 61 63 65 65 66 68 72 71 72 71 68 64 61 51 42 31 23 20 19 23 28 31 32 27 24 22 22 19 19 23 27 28 30 31 29 29
51 53 56 58 59 59 57 57 58 60 60 61 63 68 68 68 67 65 62 58 49 39 28 21 15 17 24 29 30 32 24 20 19 23 26 30 32 36 38 39 39 40 42 43
55 57 58 58 57 53 53 55 56 56 57 57 63 65 63 63 64 59 55 46 36 26 20 14 18 24 28 28 32 25 21 17 22 27 33 35 38 41 41 40 40 43 47 51
57 58 58 54 50 48 50 52 54 52 52 58 61 59 59 58 55 53 47 37 28 19 15 19 23 27 28 30 26 21 19 24 28 32 35 38 38 39 41 45 48 48 48 48
56 54 49 46 45 45 48 49 46 46 50 56 56 55 56 55 52 44 37 29 19 15 18 22 25 28 28 27 20 18 19 26 31 34 33 35 36 39 43 43 43 44 47 53
49 43 40 41 42 44 44 42 42 45 52 54 51 53 54 54 50 38 32 19 14 17 19 21 25 27 28 21 16 15 18 26 26 29 31 37 43 41 41 43 47 50 53 54
39 36 35 38 37 38 37 39 41 47 51 49 47 49 50 49 44 30 28 14 10 13 18 21 26 27 24 19 15 14 17 25 29 36 40 38 39 40 45 46 47 50 50 51
35 35 37 31 32 32 35 38 41 48 49 46 45 47 46 47 41 28 24 15 10 12 15 20 24 26 19 13 13 16 21 24 35 38 36 37 40 44 46 45 46 46 49 50
33 33 28 29 31 32 34 36 44 46 45 43 42 46 46 47 39 27 23 19 11 11 12 17 22 23 15 10 13 19 21 31 35 36 34 38 42 42 42 43 44 46 47 47
30 27 26 29 30 31 33 39 44 45 42 41 41 44 46 45 44 30 23 23 16 10 10 13 19 21 11 10 17 22 29 31 33 34 38 40 38 39 40 41 43 43 44 43
26 26 26 28 29 32 36 40 43 42 40 39 40 43 46 44 46 37 36 20 10 6 7 10 15 18 9 10 15 27 30 30 31 37 38 36 37 37 38 39 39 40 40 39
Wind_Direction
313 313 315 318 315 312 306 300 296 297 294 291 296 304 303 304 307 308 308 308 307 305 302 298 295 296 297 296 294 291 287 285 284 284 283 281 280 280 279 279 278 278 278 277
315 315 320 319 313 309 308 303 300 300 304 307 303 305 309 312 311 311 310 310 309 307 305 300 295 294 294 295 294 292 289 287 285 284 283 282 282 281 281 281 280 280 279 278
314 317 319 320 318 316 312 309 310 309 309 308 308 310 313 314 313 313 311 310 310 309 305 300 298 295 295 295 293 292 290 288 287 286 285 284 284 284 283 283 282 280 279 279
312 315 319 321 321 320 316 313 311 308 306 305 305 307 311 313 314 315 312 311 309 307 307 305 304 301 299 299 299 297 294 291 289 288 286 286 285 285 285 284 284 284 282 281
313 314 317 319 317 318 317 313 310 306 305 305 309 311 315 314 314 314 314 314 313 311 310 307 305 303 302 300 297 296 295 293 291 290 288 287 286 285 285 284 284 283 283 282
314 313 314 315 314 312 311 311 312 309 308 306 306 309 313 314 315 315 314 314 312 309 306 304 301 300 298 296 294 293 292 291 290 289 288 287 286 286 286 285 284 284 283 282
309 312 315 316 316 315 313 310 310 310 310 308 310 312 312 314 314 314 312 311 309 307 307 306 304 302 300 299 297 295 293 292 291 289 288 288 288 287 287 287 285 284 283 281
312 313 315 315 316 313 313 314 314 314 313 310 313 312 313 314 313 312 312 312 310 308 308 305 302 303 302 301 299 297 296 293 293 293 292 291 290 290 291 291 290 288 286 284
308 312 313 317 318 318 316 312 312 311 309 307 310 312 313 314 314 312 313 313 312 311 309 307 306 306 305 306 304 301 299 298 297 296 295 296 295 295 294 293 291 292 294 294
309 310 313 316 313 313 312 310 309 309 309 310 311 313 314 315 314 314 315 315 314 312 311 310 309 308 307 306 304 301 300 299 299 300 300 300 299 297 296 296 298 297 295 295
307 309 311 311 310 311 311 310 311 311 310 312 313 314 315 316 315 316 316 316 315 313 313 313 311 310 309 307 304 302 302 303 305 308 307 306 305 305 303 302 300 300 302 301
303 305 307 308 309 311 311 311 311 311 311 311 313 313 315 316 317 317 317 317 315 315 316 315 314 313 312 309 307 307 308 312 314 314 314 314 312 310 311 312 313 314 318 318
301 304 305 306 307 310 310 309 309 310 310 312 313 314 316 317 317 317 316 317 318 319 319 319 319 319 318 316 314 314 319 319 320 323 323 324 325 325 328 329 325 323 331 338
301 302 303 305 307 308 308 308 310 311 311 312 314 316 317 317 317 318 320 321 321 321 321 322 324 324 323 324 327 330 328 331 331 332 334 336 339 340 338 340 354 6 9 15
298 300 302 305 306 307 309 310 310 311 312 315 317 317 318 319 321 322 322 323 324 324 325 325 328 329 335 339 343 342 341 337 340 342 352 356 357 6 19 32 38 44 47 42
302 305 305 306 307 308 309 311 313 314 316 317 318 320 321 323 325 323 326 328 327 329 330 333 339 348 353 358 351 347 344 350 353 8 18 32 47 56 59 62 65 69 75 76
301 301 304 306 307 308 310 312 315 317 318 319 321 323 326 327 326 327 331 330 331 335 336 348 0 9 5 358 350 350 357 8 26 46 61 69 70 75 78 81 84 86 87 88
300 301 303 304 306 309 311 314 316 318 318 322 324 326 327 329 331 333 332 334 340 346 355 12 18 8 3 354 354 1 20 55 73 78 82 84 89 91 92 91 89 89 90 92
297 299 301 303 306 309 311 313 316 318 322 324 326 327 329 334 337 335 338 344 355 10 24 18 9 3 359 355 5 26 67 89 95 94 98 98 96 95 92 93 93 93 93 93
298 300 302 303 305 308 310 313 315 319 323 326 327 329 333 341 339 340 344 354 13 26 18 9 3 360 357 0 19 57 90 101 109 103 104 103 101 102 99 97 97 97 96 96
301 300 300 303 306 307 311 314 317 321 325 328 328 332 338 345 345 345 346 359 15 13 6 2 0 0 358 12 37 82 107 110 111 107 102 105 106 102 101 100 101 99 97 96
300 302 304 304 304 306 312 314 317 322 326 329 331 336 341 349 350 345 344 343 356 358 357 360 0 2 2 20 54 102 110 115 116 113 113 108 107 105 105 103 102 100 97 96
301 301 303 303 300 309 311 312 316 324 329 330 334 339 343 346 354 342 341 332 340 342 351 355 0 3 9 37 73 106 119 121 118 116 113 109 110 111 109 105 102 99 97 96
297 299 298 299 306 307 307 309 319 326 330 333 335 339 343 343 356 343 333 337 321 329 343 351 358 4 14 69 95 114 130 128 124 118 115 116 118 112 109 106 103 101 99 98
293 296 298 301 302 301 303 314 322 329 330 332 335 339 345 345 347 352 334 324 323 309 332 350 357 3 28 95 118 121 131 133 125 119 121 122 119 115 111 107 106 104 103 101
294 295 296 299 298 301 310 317 324 327 329 330 335 338 344 347 342 352 353 347 321 332 329 356 3 6 49 117 133 136 136 134 128 127 126 123 120 117 114 110 109 108 107 102
Height
10863 10862 10859 10857 10855 10853 10850 10848 10845 10842 10838 10835 10832 10829 10825 10820 10813 10807 10801 10794 10788 10780 10773 10766 10759 10753 10746 10740 10734 10728 10723 10717 10712 10708 10702 10696 10691 10688 10682 10678 10675 10670 10666 10662
10860 10858 10856 10854 10851 10847 10844 10840 10838 10835 10832 10829 10826 10823 10817 10811 10804 10796 10789 10781 10773 10767 10759 10752 10745 10739 10732 10726 10719 10713 10706 10701 10694 10689 10683 10677 10671 10666 10661 10656 10651 10648 10641 10637
10856 10853 10851 10849 10845 10842 10838 10834 10832 10829 10826 10821 10817 10813 10809 10802 10795 10788 10778 10769 10760 10752 10746 10739 10732 10726 10718 10711 10703 10697 10690 10683 10675 10667 10661 10654 10648 10640 10635 10629 10624 10621 10615 10608
10853 10850 10847 10844 10840 10836 10834 10830 10828 10824 10820 10816 10810 10805 10801 10795 10785 10777 10767 10758 10751 10741 10732 10725 10716 10707 10699 10691 10683 10675 10668 10660 10653 10646 10638 10630 10621 10613 10607 10601 10594 10586 10583 10575
10849 10846 10843 10839 10836 10832 10828 10824 10821 10817 10812 10806 10802 10793 10789 10781 10775 10764 10755 10747 10736 10727 10719 10709 10699 10690 10680 10672 10662 10653 10645 10636 10627 10619 10610 10603 10595 10588 10580 10573 10567 10562 10555 10549
10845 10841 10838 10835 10831 10827 10823 10818 10814 10808 10803 10798 10792 10787 10779 10770 10761 10752 10740 10732 10723 10714 10706 10696 10687 10677 10666 10655 10644 10633 10623 10614 10605 10595 10586 10578 10568 10562 10555 10548 10543 10537 10529 10524
10842 10838 10833 10829 10825 10822 10815 10812 10806 10801 10794 10788 10782 10776 10768 10757 10748 10741 10731 10721 10711 10701 10690 10675 10663 10654 10643 10630 10621 10609 10600 10590 10581 10572 10563 10555 10547 10539 10532 10524 10519 10514 10509 10504
10835 10831 10827 10822 10818 10813 10809 10802 10797 10792 10784 10774 10772 10761 10754 10747 10736 10724 10716 10708 10696 10684 10671 10658 10643 10629 10619 10607 10597 10586 10576 10567 10558 10549 10541 10534 10527 10521 10513 10504 10497 10493 10488 10484
10829 10824 10819 10814 10809 10803 10799 10795 10789 10783 10776 10768 10759 10753 10739 10732 10722 10710 10698 10687 10674 10660 10647 10634 10621 10608 10597 10585 10577 10567 10558 10548 10541 10532 10524 10518 10511 10503 10497 10489 10481 10474 10469 10464
10820 10816 10811 10808 10803 10801 10792 10786 10781 10775 10767 10757 10749 10737 10726 10717 10706 10694 10682 10668 10653 10639 10626 10614 10601 10591 10580 10571 10561 10552 10544 10535 10527 10520 10512 10505 10497 10489 10482 10474 10468 10461 10454 10448
10811 10806 10806 10799 10795 10789 10784 10778 10770 10761 10753 10744 10736 10723 10711 10701 10690 10678 10663 10650 10636 10622 10609 10596 10585 10574 10564 10555 10546 10538 10530 10522 10515 10508 10499 10491 10484 10477 10470 10462 10454 10447 10440 10434
10803 10799 10795 10790 10785 10779 10772 10765 10758 10751 10742 10733 10723 10711 10698 10686 10673 10658 10645 10631 10618 10604 10592 10580 10569 10560 10549 10540 10532 10525 10519 10512 10504 10496 10489 10482 10473 10466 10458 10451 10444 10437 10430 10425
10796 10792 10784 10783 10777 10767 10762 10755 10748 10739 10730 10720 10708 10698 10684 10671 10657 10644 10629 10615 10601 10587 10573 10562 10552 10543 10534 10527 10521 10516 10510 10504 10496 10488 10480 10471 10463 10457 10450 10444 10439 10433 10427 10421
10789 10782 10776 10769 10762 10757 10751 10743 10735 10726 10716 10707 10696 10683 10672 10658 10643 10628 10614 10600 10586 10573 10560 10549 10539 10531 10525 10519 10515 10511 10505 10498 10489 10480 10472 10465 10459 10454 10448 10443 10438 10432 10426 10421
10779 10774 10767 10760 10753 10746 10739 10732 10723 10714 10705 10694 10683 10671 10659 10644 10630 10615 10601 10588 10574 10561 10550 10540 10533 10527 10522 10517 10513 10507 10501 10492 10484 10477 10470 10464 10459 10454 10448 10443 10438 10434 10429 10425
10769 10764 10758 10752 10744 10736 10728 10721 10713 10703 10695 10684 10672 10661 10647 10633 10618 10603 10591 10578 10565 10553 10543 10535 10530 10525 10521 10516 10511 10506 10498 10490 10482 10477 10471 10465 10460 10456 10451 10447 10443 10439 10437 10433
10759 10754 10747 10740 10733 10725 10718 10710 10703 10694 10685 10674 10663 10650 10637 10624 10609 10595 10583 10569 10558 10548 10540 10535 10531 10526 10521 10516 10511 10504 10497 10490 10485 10481 10476 10472 10467 10464 10461 10458 10455 10452 10449 10446
10748 10742 10736 10729 10722 10715 10707 10699 10692 10686 10676 10666 10654 10642 10629 10617 10601 10589 10577 10566 10555 10547 10541 10537 10532 10528 10523 10518 10511 10504 10498 10494 10491 10488 10484 10482 10478 10475 10474 10472 10469 10466 10463 10461
10737 10731 10725 10719 10713 10707 10700 10693 10685 10677 10668 10659 10647 10636 10624 10612 10600 10582 10572 10563 10555 10549 10545 10540 10535 10530 10525 10519 10513 10507 10502 10499 10498 10495 10493 10491 10489 10487 10486 10485 10482 10479 10477 10475
10726 10721 10715 10709 10705 10700 10693 10687 10680 10672 10664 10653 10641 10630 10619 10607 10593 10582 10572 10564 10557 10553 10548 10543 10538 10533 10527 10520 10515 10511 10509 10506 10506 10503 10502 10500 10499 10497 10497 10495 10494 10491 10490 10488
10716 10711 10706 10702 10696 10691 10685 10680 10673 10666 10657 10647 10635 10624 10614 10603 10589 10579 10572 10565 10561 10556 10552 10546 10541 10535 10528 10523 10519 10517 10516 10513 10513 10512 10511 10510 10510 10508 10507 10506 10506 10505 10504 10502
10707 10703 10699 10695 10689 10685 10679 10673 10667 10659 10651 10641 10630 10620 10611 10601 10590 10579 10573 10567 10563 10558 10554 10548 10543 10537 10531 10526 10523 10522 10522 10521 10520 10518 10519 10519 10520 10518 10518 10518 10518 10517 10516 10514
10698 10694 10690 10687 10682 10678 10673 10667 10661 10654 10645 10635 10626 10616 10607 10598 10589 10580 10573 10567 10563 10559 10555 10551 10546 10540 10534 10530 10528 10527 10528 10528 10528 10527 10528 10528 10528 10528 10527 10528 10529 10529 10527 10527
10688 10686 10683 10679 10676 10672 10667 10661 10655 10647 10639 10630 10621 10612 10603 10594 10585 10577 10572 10566 10563 10559 10556 10552 10547 10543 10538 10535 10533 10533 10534 10535 10535 10535 10535 10536 10537 10537 10537 10537 10538 10538 10539 10538
10680 10679 10677 10674 10670 10665 10660 10654 10647 10640 10633 10625 10617 10608 10600 10589 10580 10574 10568 10563 10560 10558 10556 10553 10549 10545 10541 10539 10539 10539 10540 10542 10542 10542 10543 10545 10546 10546 10547 10547 10547 10548 10548 10548
10674 10673 10670 10666 10662 10658 10653 10647 10641 10635 10628 10620 10613 10604 10596 10587 10576 10569 10562 10556 10554 10555 10556 10554 10551 10547 10543 10543 10544 10545 10547 10549 10549 10549 10551 10553 10554 10554 10555 10555 10556 10557 10558 10557